This demonstration page uses our WeatherBlox Daily Observations layout. Learn more.

Left ArrowRight Arrow

Hourly Observations for May 18, 2017

Temp ( °F °C ) Dew Point ( °F °C ) Humidity (%) Winds ( mph kmh ) Pressure ( in mb ) Visibility ( mi km ) Precip ( " mm )
12:53 am 00:53 Cloudy 78 25.6 61 16.1 56 56 SSW 3 6 30.03 1017 10 16 0.00 0.00
1:53 am 01:53 Cloudy 79 26.1 62 16.7 56 56 SE 7 11 30.03 1017 10 16 0.00 0.00
2:53 am 02:53 Cloudy with Light Rain 72 22.2 68 20 87 87 WNW 6 9 30.04 1017 10 16 0.00 0.03
3:53 am 03:53 Cloudy 71 21.7 69 20.6 94 94 ENE 3 6 30.04 1017 10 16 0.00 0.03
4:53 am 04:53 Clear 69 20.6 68 20 96 96 Calm 30.04 1017 10 16 0.00 0.00
5:53 am 05:53 Mostly Cloudy 69 20.6 68 20 96 96 Calm 30.06 1018 10 16 0.00 0.00
6:53 am 06:53 Cloudy 68 20 68 20 100 100 Calm 30.07 1018 10 16 0.00 0.00
7:53 am 07:53 Cloudy 72 22.2 69 20.6 91 91 Calm 30.09 1019 10 16 0.00 0.00
8:53 am 08:53 Mostly Sunny 75 23.9 68 20 79 79 S 5 7 30.10 1019 10 16 0.00 0.00
9:53 am 09:53 Sunny 78 25.6 69 20.6 74 74 VRB 7 11 30.10 1019 10 16 0.00 0.00
10:53 am 10:53 Partly Cloudy 80 26.7 69 20.6 69 69 VRB 3 6 30.11 1020 10 16 0.00 0.00
11:53 am 11:53 Mostly Sunny 83 28.3 68 20 61 61 VRB 6 9 30.10 1019 10 16 0.00 0.00
12:53 pm 12:53 Partly Cloudy 85 29.4 68 20 57 57 S 7 11 30.09 1019 10 16 0.00 0.00
1:53 pm 13:53 Mostly Cloudy 85 29.4 66 18.9 53 53 SSE 6 9 30.06 1018 10 16 0.00 0.00
2:53 pm 14:53 Mostly Cloudy 86 30 66 18.9 51 51 S 7 11 30.04 1017 10 16 0.00 0.00
3:53 pm 15:53 Partly Cloudy 88 31.1 65 18.3 46 46 WSW 6 9 30.03 1017 10 16 0.00 0.00
4:53 pm 16:53 Cloudy with Light Rain 82 27.8 66 18.9 58 58 SW 7 11 30.03 1017 10 16 0.00 0.03
5:53 pm 17:53 Partly Cloudy 87 30.6 67 19.4 51 51 SW 8 13 30.01 1016 10 16 0.00 0.03
6:53 pm 18:53 Mostly Cloudy 85 29.4 66 18.9 53 53 SSW 6 9 30.01 1016 10 16 0.00 0.00
7:53 pm 19:53 Cloudy with Light Rain 84 28.9 67 19.4 57 57 SSW 6 9 30.02 1017 10 16 0.00 0.03
8:53 pm 20:53 Clear 83 28.3 67 19.4 59 59 S 6 9 30.02 1017 10 16 0.00 0.03
9:53 pm 21:53 Clear 81 27.2 67 19.4 62 62 SSE 6 9 30.01 1016 10 16 0.00 0.00
10:53 pm 22:53 Clear 74 23.3 70 21.1 88 88 NNW 3 6 30.03 1017 10 16 0.00 0.00
11:53 pm 23:53 Clear 73 22.8 70 21.1 90 90 NNE 3 6 30.02 1017 10 16 0.00 0.00

Powered by AerisWeather